Home > Weather > Kreuzlingen > Past weeks

Flag for Switzerland Past Weather in Kreuzlingen, Thurgau, Switzerland — Yesterday and Last 2 Weeks

Now
63 °F

Mild.


Feels Like: 63 °F
Forecast: 59 / 86 °F
Wind: 2 mph from North

Location: Friedrichshafen Airport

Current Time: Aug 26, 2016 at 3:40:32 AM

Latest Report: Aug 26, 2016 at 2:55 AM


Visibility: 3 mi

Pressure: 30.07 "Hg

Humidity: 100%

Dew Point: 63 °F

Location of KreuzlingenLocation

Past Weather in Kreuzlingen — Graph

°F

Kreuzlingen Temperature Yesterday

Maximum temperature yesterday: 81 °F (at 2:50 PM)
Minimum temperature yesterday: 57 °F (at 5:50 AM)
Average temperature yesterday: 69 °F

High & Low Weather Summary for the Past Weeks

 TemperatureHumidityPressure
High82 °F (Aug 14, 5:50 PM)100% (Aug 11, 2:50 AM)30.39 "Hg (Aug 11, 2:50 AM)
Low50 °F (Aug 11, 2:50 AM)43% (Aug 11, 4:20 PM)29.86 "Hg (Aug 17, 5:50 PM)
Average66 °F78%30.14 "Hg
* Reported Aug 11 2:20 AM — Aug 26 2:20 AM, Kreuzlingen, Weather by CustomWeather, © 2016

Note: Actual official high and low records may vary slightly from our data, if they occured in-between our weather recording intervals... More about our weather records

Advertising

Kreuzlingen Weather History for the Previous 24 Hours

Scroll right to see more
 ConditionsComfort  
Time TempWeatherWind HumidityBarometerVisibility
2:20 AM
Fri, Aug 26
64 °FMild.2 mph94%30.07 "Hg5 mi
1:50 AM64 °FMild.5 mph94%30.07 "HgN/A
1:20 AM64 °FMild.3 mph94%30.07 "HgN/A
12:50 AM63 °FMild.5 mph100%30.07 "HgN/A
12:20 AM64 °FMild.2 mph100%30.07 "HgN/A
11:50 PM
Thu, Aug 25
66 °FMild.2 mph94%30.07 "Hg3 mi
11:20 PM66 °FMild.No wind94%30.07 "HgN/A
10:57 PM66 °FMild.2 mph94%30.07 "Hg3 mi
10:50 PM66 °FMild.1 mph94%30.07 "HgN/A
10:20 PM66 °FMild.2 mph94%30.07 "HgN/A
9:20 PM68 °FClear.No wind94%30.07 "Hg10 mi
8:50 PM70 °FSunny.1 mph88%30.07 "Hg10 mi
8:20 PM73 °FSunny.No wind78%30.07 "Hg10 mi
7:50 PM75 °FSunny.2 mph74%30.07 "Hg10 mi
7:20 PM79 °FSunny.3 mph70%30.07 "Hg10 mi
6:50 PM81 °FSunny.3 mph66%30.07 "Hg10 mi
6:20 PM81 °FSunny.3 mph62%30.07 "Hg10 mi
5:50 PM81 °FSunny.7 mph62%30.07 "Hg10 mi
5:20 PM81 °FSunny.6 mph62%30.07 "Hg10 mi
4:50 PM81 °FSunny.6 mph62%30.07 "Hg10 mi
4:20 PM81 °FSunny.6 mph62%30.09 "Hg10 mi
3:50 PM81 °FSunny.7 mph62%30.09 "Hg10 mi
3:20 PM81 °FSunny.5 mph62%30.09 "Hg10 mi
2:50 PM81 °FSunny.6 mph62%30.09 "Hg10 mi
2:20 PM79 °FSunny.6 mph65%30.09 "Hg10 mi
1:50 PM79 °FSunny.6 mph61%30.09 "Hg10 mi
1:20 PM77 °FSunny.5 mph65%30.12 "Hg10 mi
12:50 PM77 °FSunny.6 mph65%30.12 "Hg10 mi
12:20 PM75 °FSunny.2 mph65%30.12 "Hg10 mi
11:50 AM75 °FSunny.2 mph65%30.12 "Hg10 mi
11:20 AM73 °FSunny.1 mph65%30.15 "Hg10 mi
10:50 AM70 °FSunny.1 mph69%30.15 "Hg10 mi
10:20 AM68 °FSunny.3 mph73%30.15 "Hg10 mi
9:50 AM66 °FSunny.3 mph78%30.15 "Hg10 mi
9:20 AM64 °FSunny.5 mph78%30.15 "Hg10 mi
8:50 AM64 °FPassing clouds.5 mph78%30.15 "HgN/A
8:20 AM61 °FSunny.5 mph88%30.15 "Hg10 mi
7:50 AM61 °FSunny.1 mph83%30.15 "Hg10 mi
7:20 AM59 °FClear.2 mph88%30.15 "Hg10 mi
6:50 AM57 °FClear.3 mph94%30.12 "Hg10 mi
6:20 AM57 °FClear.3 mph94%30.12 "Hg10 mi
5:50 AM57 °FClear.3 mph94%30.12 "Hg10 mi
5:20 AM59 °FCool.3 mph88%30.12 "HgN/A
4:50 AM59 °FCool.3 mph88%30.12 "HgN/A
4:20 AM59 °FCool.3 mph94%30.12 "HgN/A
3:50 AM59 °FCool.3 mph94%30.12 "HgN/A
3:20 AM61 °FCool.5 mph88%30.12 "HgN/A
Weather by CustomWeather, © 2016

See weather overviewHow to use our weather pages